Date String (YYYY-MM-DD hh:mm:ss) UTC,Instrument flags,Ambient pressure (hPa),Sample flow (lpm),Bypass flow (lpm),Sample temperature (°C),Ambient temperature (°C),ASC tube jacket temperature (°C),LED temperature (°C),Box temperature (°C),Sample RH (%),Span deviation,Mass concentration (μg/m³),Mass concentration (μg/m³),Mass concentration (μg/m³)
DateTimeUTC,F1_M11,P_M11,Q1_M11,Q2_M11,T1_M11,T2_M11,T3_M11,T4_M11,T5_M11,U1_M11,ZSPAN_M11,X2_M11,X0_M11,X1_M11
2022-12-12 07:00:00,,0814.9,5.00,0.00,25.4,23.7,00.0,34.4,27.1,06.2,0000.0,0003.56,0007.77,0003.14
2022-12-12 07:01:00,,0814.9,5.00,0.00,25.4,23.7,00.0,34.4,27.0,06.3,0000.0,0003.65,0007.98,0003.21
2022-12-12 07:02:00,,0814.9,5.00,0.00,25.3,23.7,00.0,34.4,27.0,06.3,0000.0,0003.68,0008.27,0003.23
2022-12-12 07:03:00,,0814.9,5.00,0.00,25.3,23.7,00.0,34.4,27.0,06.3,0000.0,0003.63,0008.02,0003.22
2022-12-12 07:04:00,,0814.9,5.00,0.00,25.3,23.7,00.0,34.3,27.0,06.4,0000.0,0003.64,0008.09,0003.22
2022-12-12 07:05:00,,0814.9,5.00,0.00,25.3,23.7,00.0,34.3,27.0,06.4,0000.0,0003.66,0008.04,0003.23
2022-12-12 07:06:00,,0814.9,5.00,0.00,25.3,23.7,00.0,34.3,27.0,06.3,0000.0,0003.71,0007.90,0003.27
2022-12-12 07:07:00,,0814.9,5.00,0.00,25.3,23.6,00.0,34.3,27.0,06.4,0000.0,0003.77,0008.35,0003.31
2022-12-12 07:08:00,,0814.8,5.00,0.00,25.3,23.6,00.0,34.3,26.9,06.4,0000.0,0003.81,0008.71,0003.35
2022-12-12 07:09:00,,0814.7,5.00,0.00,25.3,23.6,00.0,34.3,26.9,06.4,0000.0,0003.82,0008.78,0003.37
2022-12-12 07:10:00,,0814.8,5.00,0.00,25.2,23.6,00.0,34.3,26.9,06.4,0000.0,0003.78,0008.70,0003.36
2022-12-12 07:11:00,,0814.7,5.00,0.00,25.2,23.6,00.0,34.3,26.9,06.4,0000.0,0003.73,0008.90,0003.33
2022-12-12 07:12:00,,0815.2,5.00,0.00,25.2,23.6,00.0,34.2,26.9,06.4,0000.0,0003.71,0008.94,0003.27
2022-12-12 07:13:00,,0815.1,5.00,0.00,25.2,23.6,00.0,34.2,26.9,06.4,0000.0,0003.69,0008.47,0003.26
2022-12-12 07:14:00,,0814.9,5.00,0.00,25.2,23.6,00.0,34.2,26.9,06.5,0000.0,0003.80,0008.60,0003.34
2022-12-12 07:15:00,,0815.0,5.01,0.00,25.2,23.6,00.0,34.2,26.9,06.4,0000.0,0003.81,0009.39,0003.38
2022-12-12 07:16:00,,0814.7,5.01,0.00,25.2,23.6,00.0,34.2,26.8,06.3,0000.0,0003.75,0009.30,0003.34
2022-12-12 07:17:00,,0814.7,5.00,0.00,25.2,23.5,00.0,34.2,26.8,06.2,0000.0,0003.68,0009.21,0003.28
2022-12-12 07:18:00,,0814.8,4.99,0.00,25.1,23.5,00.0,34.2,26.9,06.2,0000.0,0003.62,0008.41,0003.22
2022-12-12 07:19:00,,0814.8,5.01,0.00,25.1,23.5,00.0,34.2,26.8,06.2,0000.0,0003.56,0008.04,0003.18
2022-12-12 07:20:00,,0815.0,5.01,0.00,25.1,23.5,00.0,34.2,26.8,06.3,0000.0,0003.56,0007.97,0003.17
2022-12-12 07:21:00,,0815.1,5.00,0.00,25.1,23.5,00.0,34.1,26.9,06.4,0000.0,0003.61,0007.82,0003.22
2022-12-12 07:22:00,,0815.0,4.99,0.00,25.1,23.5,00.0,34.1,26.9,06.5,0000.0,0003.76,0007.58,0003.35
2022-12-12 07:23:00,,0814.8,5.00,0.00,25.1,23.5,00.0,34.1,26.8,06.4,0000.0,0003.82,0007.58,0003.45
2022-12-12 07:24:00,,0814.9,5.00,0.00,25.1,23.5,00.0,34.1,26.8,06.3,0000.0,0003.75,0007.52,0003.41
2022-12-12 07:25:00,,0814.9,5.00,0.00,25.1,23.5,00.0,34.1,26.8,06.2,0000.0,0003.61,0007.28,0003.30
2022-12-12 07:26:00,,0815.0,5.00,0.00,25.1,23.5,00.0,34.1,26.8,06.2,0000.0,0003.54,0005.54,0003.23
2022-12-12 07:27:00,,0815.2,5.00,0.00,25.1,23.5,00.0,34.1,26.8,06.5,0000.0,0003.63,0005.72,0003.31
2022-12-12 07:28:00,,0815.0,5.01,0.00,25.1,23.6,00.0,34.1,26.8,06.4,0000.0,0003.74,0005.99,0003.42
2022-12-12 07:29:00,,0814.8,5.01,0.00,25.1,23.6,00.0,34.1,26.9,06.7,0000.0,0003.93,0006.49,0003.60
2022-12-12 07:30:00,,0815.0,5.01,0.00,25.1,23.5,00.0,34.1,27.0,06.7,0000.0,0004.17,0007.32,0003.81
2022-12-12 07:31:00,,0815.0,5.00,0.00,25.1,23.5,00.0,34.1,27.0,06.7,0000.0,0004.38,0008.33,0003.98
2022-12-12 07:32:00,,0815.1,5.00,0.00,25.1,23.6,00.0,34.0,26.9,06.8,0000.0,0004.53,0008.66,0004.11
2022-12-12 07:33:00,,0815.2,5.00,0.00,25.1,23.6,00.0,34.0,26.9,06.8,0000.0,0004.62,0008.94,0004.18
2022-12-12 07:34:00,,0814.7,5.00,0.00,25.1,23.6,00.0,34.0,26.8,06.6,0000.0,0004.65,0009.00,0004.21
2022-12-12 07:35:00,,0814.8,5.00,0.00,25.1,23.6,00.0,34.0,26.8,06.6,0000.0,0004.80,0009.18,0004.34
2022-12-12 07:36:00,,0815.0,5.00,0.00,25.1,23.5,00.0,34.0,26.8,06.3,0000.0,0004.91,0009.34,0004.45
2022-12-12 07:37:00,,0814.9,5.00,0.00,25.1,23.5,00.0,34.0,26.8,06.1,0000.0,0004.91,0009.50,0004.47
2022-12-12 07:38:00,,0814.9,5.00,0.00,25.1,23.5,00.0,34.0,26.8,06.2,0000.0,0004.84,0009.62,0004.40
2022-12-12 07:39:00,,0814.6,5.00,0.00,25.1,23.5,00.0,34.0,26.8,06.1,0000.0,0004.78,0009.56,0004.33
2022-12-12 07:40:00,,0814.6,5.01,0.00,25.1,23.5,00.0,34.0,26.8,06.2,0000.0,0004.67,0009.43,0004.22
2022-12-12 07:41:00,,0814.5,5.00,0.00,25.1,23.5,00.0,34.0,26.8,06.3,0000.0,0004.51,0009.58,0004.07
2022-12-12 07:42:00,,0814.6,5.00,0.00,25.1,23.6,00.0,34.0,26.9,06.5,0000.0,0004.42,0009.10,0003.99
2022-12-12 07:43:00,,0814.6,5.00,0.00,25.1,23.6,00.0,34.0,26.8,06.6,0000.0,0004.38,0008.99,0003.95
2022-12-12 07:44:00,,0814.7,5.00,0.00,25.1,23.6,00.0,34.0,26.8,06.7,0000.0,0004.38,0009.01,0003.93
2022-12-12 07:45:00,,0814.6,5.00,0.00,25.1,23.6,00.0,34.0,26.8,06.8,0000.0,0004.52,0009.45,0004.02
2022-12-12 07:46:00,,0814.6,5.00,0.00,25.1,23.5,00.0,34.0,26.8,06.6,0000.0,0004.60,0009.70,0004.07
2022-12-12 07:47:00,,0814.6,5.00,0.00,25.0,23.5,00.0,34.0,26.8,06.7,0000.0,0004.65,0009.74,0004.11
2022-12-12 07:48:00,,0814.7,4.99,0.00,25.1,23.5,00.0,34.0,26.9,06.8,0000.0,0004.92,0010.00,0004.32
2022-12-12 07:49:00,,0814.6,4.99,0.00,25.1,23.6,00.0,34.0,26.9,06.9,0000.0,0005.18,0010.23,0004.54
2022-12-12 07:50:00,,0814.5,5.00,0.00,25.1,23.6,00.0,34.0,26.9,07.0,0000.0,0005.48,0011.14,0004.82
2022-12-12 07:51:00,,0814.6,4.99,0.00,25.0,23.5,00.0,34.0,26.9,06.9,0000.0,0005.74,0011.75,0005.05
2022-12-12 07:52:00,,0814.5,5.01,0.00,25.0,23.4,00.0,34.0,26.9,06.9,0000.0,0005.94,0011.82,0005.24
2022-12-12 07:53:00,,0814.6,5.01,0.00,25.0,23.4,00.0,33.9,26.9,06.9,0000.0,0006.04,0011.90,0005.34
2022-12-12 07:54:00,,0814.6,5.00,0.00,25.0,23.4,00.0,33.9,26.9,06.9,0000.0,0006.12,0012.15,0005.41
2022-12-12 07:55:00,,0814.4,5.00,0.00,25.0,23.4,00.0,33.9,26.8,06.9,0000.0,0006.12,0012.10,0005.44
2022-12-12 07:56:00,,0814.4,5.00,0.00,25.0,23.5,00.0,33.9,26.8,07.0,0000.0,0006.15,0012.36,0005.46
2022-12-12 07:57:00,,0814.4,5.00,0.00,25.0,23.5,00.0,33.9,26.8,07.0,0000.0,0006.24,0012.45,0005.53
2022-12-12 07:58:00,,0814.4,5.00,0.00,25.0,23.5,00.0,33.9,26.7,06.9,0000.0,0006.35,0013.55,0005.62
2022-12-12 07:59:00,,0814.4,5.01,0.00,25.0,23.5,00.0,33.9,26.7,06.8,0000.0,0006.35,0013.64,0005.60
